Location: Woodhurst
(52.3667°N, 0.0667°W)
Time: 21:53:37
(UTC+00:00)

Meteor 2-9 Rocket - Pass Details

Date: 19 May 2025
Orbit: 791 x 893 km, 81.3° (Epoch: 18 June)

Event Time Altitude Azimuth Distance (km) Brightness Sun altitude
Rises 22:12:10 0° 347° (NNW) 3,396 9.1 -14.2°
Reaches altitude 10° 22:14:34 10° 347° (NNW) 2,473 8.0 -14.3°
Maximum altitude 22:20:12 86° 76° (ENE) 869 4.2 -14.7°
Enters shadow 22:24:03 22° 166° (SSE) 1,815 5.3 -14.9°
